Retour au catalogue

FREGAT R/B

ActifHEO
NORAD 44553·ROCKET BODY·🇷🇺 Russia

Lancé Sep 26, 2019 depuis Plesetsk Cosmodrome

Loading…

Prochains Passages (prochaines 24 heures)

TLE

FraisSource: Space-Track

Époque: Sep 13, 2026, 02:17 UTC

1 44553U 19065B   26256.09537979 -.00000935  00000-0  00000+0 0  9999
2 44553  63.3334 144.2291 6761537 260.4991  23.2551  2.01544382 51276

Suivez FREGAT R/B en temps réel avec AllMySat

Download on the App Store